2017-071L

Last updated on Wed Jan 17 2018 00:19:53 GMT+0000 (Greenwich Mean Time)

1 43047U 17071L 18016.16991479 .00005167 00000-0 14623-3 0 9994 2 43047 51.6403 61.4882 0003836 99.1237 261.0181 15.38020674 6213
UTC large
Height (km)
Speed (km/s)
/
Latitude / Longitude
Inclination (degrees)
Orbital Period (minutes)
Azimuth
Elevation
Range (km)
Doppler Factor

Next 0 passes for location: London (51.5072 / 0.1276)

Sorry there are no passes over London.